CSN3537 ZGGG-ZSSS

Flight info

Callsign CSN3537
Flight time 1h 49m
Altitude 39100
Route BOVMA1 BOVMA W41 DOPKU G471 EGEDA/K0896S1220 G471 PLT/K0891S1250 A599 ELNEX G204 JTN
Aircraft A359/H-SDE2E3GHIJ3J4J5LM1ORWXY/LB1D1

Departure

Time 2026-04-30 17:58
Airport Guangzhou Baiyun International Airport (ZGGG)

Arrival

Time 2026-04-30 19:47
Airport Shanghai Hongqiao International Airport (ZSSS)
Time Latitude Longitude Altitude Speed Heading
2026-04-30 17:55 23.37763 113.30287 57 ft 23 kts 194°
2026-04-30 17:56 23.37612 113.30539 55 ft 11 kts 49°
2026-04-30 17:57 23.38560 113.30800 61 ft 147 kts 14°
2026-04-30 17:58 23.42072 113.31643 2538 ft 192 kts 14°
2026-04-30 17:59 23.48056 113.33262 4497 ft 243 kts 14°
2026-04-30 18:00 23.54684 113.35625 8626 ft 268 kts 43°
2026-04-30 18:00 23.57537 113.41011 11640 ft 289 kts 77°
2026-04-30 18:01 23.57655 113.45337 13649 ft 297 kts 99°
2026-04-30 18:02 23.54952 113.51287 16465 ft 303 kts 137°
2026-04-30 18:02 23.49483 113.54135 19320 ft 292 kts 181°
2026-04-30 18:03 23.44204 113.51900 21987 ft 274 kts 232°
2026-04-30 18:04 23.43223 113.46516 24279 ft 271 kts 284°
2026-04-30 18:05 23.50459 113.44718 25674 ft 354 kts 34°
2026-04-30 18:06 23.56444 113.53447 28240 ft 375 kts 61°
2026-04-30 18:07 23.60664 113.64027 30230 ft 405 kts 68°
2026-04-30 18:08 23.63575 113.72727 30944 ft 441 kts 68°
2026-04-30 18:09 23.67984 113.85894 31988 ft 483 kts 68°
2026-04-30 18:10 23.72734 114.00117 33173 ft 514 kts 69°
2026-04-30 18:11 23.77694 114.15022 34625 ft 529 kts 69°
2026-04-30 18:11 23.83250 114.25410 35104 ft 536 kts 42°
2026-04-30 18:12 23.92736 114.31444 35325 ft 527 kts 13°
2026-04-30 18:13 23.99795 114.33594 35331 ft 527 kts 11°
2026-04-30 18:14 24.17489 114.38675 35337 ft 527 kts 11°
2026-04-30 18:15 24.38394 114.44857 36408 ft 516 kts 11°
2026-04-30 18:16 24.45275 114.46893 37149 ft 513 kts 10°
2026-04-30 18:16 24.52128 114.48923 37924 ft 511 kts 10°
2026-04-30 18:17 24.55567 114.49943 38325 ft 510 kts 10°
2026-04-30 18:17 24.58991 114.50958 38735 ft 509 kts 10°
2026-04-30 18:17 24.65829 114.52986 39181 ft 513 kts 10°
2026-04-30 18:18 24.69281 114.54009 39193 ft 515 kts 10°
2026-04-30 18:18 24.76164 114.56056 39183 ft 514 kts 10°
2026-04-30 18:19 24.83043 114.58107 39188 ft 514 kts 10°
2026-04-30 18:19 24.89938 114.60165 39189 ft 514 kts 10°
2026-04-30 18:20 24.96825 114.62219 39181 ft 514 kts 10°
2026-04-30 18:20 25.03711 114.64277 39185 ft 513 kts 10°
2026-04-30 18:21 25.10542 114.66321 39185 ft 513 kts 10°
2026-04-30 18:21 25.17414 114.68381 39185 ft 512 kts 10°
2026-04-30 18:22 25.24258 114.70437 39182 ft 513 kts 10°
2026-04-30 18:22 25.30859 114.73568 39188 ft 525 kts 27°
2026-04-30 18:22 25.33872 114.75856 39190 ft 528 kts 32°
2026-04-30 18:23 25.39625 114.80926 39184 ft 530 kts 35°
2026-04-30 18:23 25.45255 114.86147 39183 ft 530 kts 36°
2026-04-30 18:24 25.52790 114.93049 39190 ft 529 kts 35°
2026-04-30 18:25 25.58470 114.98199 39185 ft 529 kts 34°
2026-04-30 18:25 25.67929 115.06764 39188 ft 528 kts 34°
2026-04-30 18:26 25.76436 115.14492 39186 ft 528 kts 34°
2026-04-30 18:27 25.83957 115.21337 39185 ft 527 kts 34°
2026-04-30 18:28 25.92406 115.29039 39186 ft 528 kts 34°
2026-04-30 18:28 26.00928 115.36824 39190 ft 528 kts 34°
2026-04-30 18:29 26.12223 115.47163 39185 ft 528 kts 34°
2026-04-30 18:30 26.23542 115.57556 39192 ft 529 kts 34°
2026-04-30 18:31 26.32025 115.65360 39194 ft 529 kts 34°
2026-04-30 18:32 26.40530 115.73201 39197 ft 530 kts 34°
2026-04-30 18:33 26.48999 115.81025 39199 ft 530 kts 34°
2026-04-30 18:33 26.57496 115.88891 39197 ft 530 kts 34°
2026-04-30 18:34 26.65978 115.96755 39195 ft 530 kts 34°
2026-04-30 18:35 26.71650 116.02027 39199 ft 530 kts 34°
2026-04-30 18:35 26.77321 116.07300 39199 ft 530 kts 34°
2026-04-30 18:36 26.85750 116.15153 39196 ft 531 kts 35°
2026-04-30 18:37 26.94100 116.23520 39202 ft 536 kts 41°
2026-04-30 18:37 26.99181 116.29562 39199 ft 537 kts 43°
2026-04-30 18:38 27.04251 116.35712 39188 ft 537 kts 43°
2026-04-30 18:38 27.09355 116.41907 39187 ft 537 kts 43°
2026-04-30 18:39 27.14400 116.48019 39196 ft 538 kts 43°
2026-04-30 18:39 27.19483 116.54178 39199 ft 538 kts 43°
2026-04-30 18:40 27.24597 116.60312 39201 ft 538 kts 41°
2026-04-30 18:40 27.29802 116.66327 39191 ft 537 kts 41°
2026-04-30 18:41 27.35018 116.72349 39196 ft 538 kts 41°
2026-04-30 18:41 27.40215 116.78395 39190 ft 538 kts 41°
2026-04-30 18:42 27.45406 116.84464 39198 ft 538 kts 41°
2026-04-30 18:42 27.53180 116.93579 39204 ft 539 kts 41°
2026-04-30 18:45 27.81834 117.26766 39210 ft 537 kts 41°
2026-04-30 18:46 27.87031 117.32809 39208 ft 536 kts 41°
2026-04-30 18:46 27.92213 117.38851 39208 ft 535 kts 41°
2026-04-30 18:47 27.97374 117.44889 39207 ft 534 kts 41°
2026-04-30 18:47 28.02526 117.50923 39208 ft 533 kts 41°
2026-04-30 18:48 28.07637 117.56917 39210 ft 532 kts 41°
2026-04-30 18:48 28.12801 117.62978 39212 ft 531 kts 41°
2026-04-30 18:49 28.17930 117.68994 39209 ft 530 kts 41°
2026-04-30 18:49 28.23006 117.74960 39211 ft 529 kts 41°
2026-04-30 18:50 28.28104 117.80963 39205 ft 528 kts 41°
2026-04-30 18:50 28.33192 117.86966 39207 ft 528 kts 41°
2026-04-30 18:51 28.38279 117.92976 39210 ft 527 kts 41°
2026-04-30 18:51 28.43352 117.98990 39208 ft 527 kts 41°
2026-04-30 18:52 28.48330 118.05088 39211 ft 527 kts 42°
2026-04-30 18:52 28.53290 118.11243 39209 ft 527 kts 42°
2026-04-30 18:53 28.58238 118.17368 39213 ft 527 kts 42°
2026-04-30 18:53 28.63197 118.23491 39211 ft 527 kts 41°
2026-04-30 18:54 28.68161 118.29626 39216 ft 526 kts 41°
2026-04-30 18:54 28.73114 118.35755 39217 ft 526 kts 41°
2026-04-30 18:55 28.78064 118.41890 39219 ft 526 kts 41°
2026-04-30 18:55 28.85478 118.51099 39220 ft 526 kts 41°
2026-04-30 18:56 28.92799 118.60211 39219 ft 525 kts 41°
2026-04-30 18:57 29.00268 118.69530 39215 ft 525 kts 41°
2026-04-30 18:57 29.05186 118.75679 39220 ft 525 kts 41°
2026-04-30 18:58 29.12558 118.84918 39224 ft 525 kts 41°
2026-04-30 18:59 29.19924 118.94160 39213 ft 525 kts 41°
2026-04-30 19:00 29.29700 119.06478 39214 ft 526 kts 41°
2026-04-30 19:01 29.39354 119.18688 39216 ft 527 kts 41°
2026-04-30 19:02 29.46666 119.27971 39222 ft 527 kts 41°
2026-04-30 19:03 29.56365 119.40314 39214 ft 528 kts 41°
2026-04-30 19:04 29.64951 119.53746 39213 ft 547 kts 60°
2026-04-30 19:05 29.70829 119.69654 39209 ft 550 kts 62°
2026-04-30 19:06 29.76722 119.85834 39213 ft 551 kts 61°
2026-04-30 19:06 29.81141 119.97917 39206 ft 552 kts 61°
2026-04-30 19:07 29.85509 120.09913 39202 ft 553 kts 61°
2026-04-30 19:08 29.91404 120.26166 39204 ft 555 kts 61°
2026-04-30 19:09 29.95821 120.38399 39204 ft 555 kts 61°
2026-04-30 19:09 29.98766 120.46576 39197 ft 556 kts 61°
2026-04-30 19:10 30.04636 120.62928 39200 ft 556 kts 60°
2026-04-30 19:11 30.09065 120.75316 39198 ft 556 kts 60°
2026-04-30 19:12 30.12007 120.83568 39190 ft 557 kts 60°
2026-04-30 19:12 30.14861 120.91594 38999 ft 545 kts 60°
2026-04-30 19:13 30.17701 120.99605 37614 ft 541 kts 59°
2026-04-30 19:13 30.20513 121.07552 36674 ft 529 kts 59°
2026-04-30 19:13 30.21938 121.11601 36383 ft 519 kts 59°
2026-04-30 19:14 30.23285 121.15426 36169 ft 509 kts 59°
2026-04-30 19:14 30.24161 121.17915 36006 ft 502 kts 59°
2026-04-30 19:14 30.25864 121.22821 35712 ft 492 kts 60°
2026-04-30 19:14 30.26733 121.26325 35441 ft 491 kts 72°
2026-04-30 19:15 30.26977 121.28951 35009 ft 490 kts 84°
2026-04-30 19:15 30.24765 121.37424 32936 ft 485 kts 128°
2026-04-30 19:15 30.22509 121.40193 32005 ft 470 kts 148°
2026-04-30 19:16 30.19775 121.42014 31119 ft 446 kts 169°
2026-04-30 19:16 30.17934 121.42609 30566 ft 426 kts 182°
2026-04-30 19:16 30.12629 121.41736 28638 ft 355 kts 224°
2026-04-30 19:17 30.10868 121.40010 27717 ft 317 kts 246°
2026-04-30 19:17 30.09426 121.35635 25938 ft 282 kts 271°
2026-04-30 19:17 30.09372 121.33432 25074 ft 275 kts 279°
2026-04-30 19:18 30.09847 121.29884 23699 ft 269 kts 288°
2026-04-30 19:18 30.10257 121.27057 22414 ft 270 kts 280°
2026-04-30 19:18 30.10412 121.24907 21528 ft 269 kts 279°
2026-04-30 19:19 30.10542 121.22762 20662 ft 267 kts 278°
2026-04-30 19:19 30.10778 121.20643 19593 ft 268 kts 285°
2026-04-30 19:19 30.12554 121.16768 16817 ft 290 kts 313°
2026-04-30 19:20 30.14198 121.15418 15308 ft 304 kts 332°
2026-04-30 19:20 30.16321 121.14813 14141 ft 332 kts 354°
2026-04-30 19:20 30.21058 121.15430 12004 ft 352 kts
2026-04-30 19:21 30.23500 121.15837 10930 ft 358 kts
2026-04-30 19:21 30.28276 121.16596 10113 ft 332 kts
2026-04-30 19:22 30.32611 121.17439 9512 ft 306 kts 13°
2026-04-30 19:22 30.37126 121.22024 8585 ft 297 kts 64°
2026-04-30 19:23 30.36204 121.28869 7427 ft 302 kts 126°
2026-04-30 19:24 30.32744 121.31375 6659 ft 298 kts 168°
2026-04-30 19:24 30.30714 121.31685 6419 ft 292 kts 180°
2026-04-30 19:24 30.27041 121.30126 6400 ft 284 kts 231°
2026-04-30 19:25 30.26878 121.24148 6399 ft 259 kts 310°
2026-04-30 19:26 30.29932 121.22263 6230 ft 256 kts 356°
2026-04-30 19:26 30.33476 121.22738 6013 ft 257 kts
2026-04-30 19:26 30.35246 121.23056 6008 ft 258 kts
2026-04-30 19:27 30.38762 121.23649 6010 ft 258 kts
2026-04-30 19:27 30.42299 121.24226 6012 ft 258 kts
2026-04-30 19:28 30.44054 121.24509 6013 ft 258 kts
2026-04-30 19:28 30.47529 121.25056 6016 ft 258 kts
2026-04-30 19:29 30.51079 121.25580 6009 ft 258 kts
2026-04-30 19:29 30.52853 121.25844 6011 ft 258 kts
2026-04-30 19:30 30.58188 121.26611 6008 ft 258 kts
2026-04-30 19:30 30.61751 121.27074 6007 ft 258 kts
2026-04-30 19:31 30.65323 121.27549 6007 ft 258 kts
2026-04-30 19:31 30.67098 121.27786 5965 ft 259 kts
2026-04-30 19:31 30.70628 121.28258 5485 ft 258 kts
2026-04-30 19:32 30.72403 121.28501 5254 ft 258 kts
2026-04-30 19:32 30.74167 121.28750 5009 ft 258 kts
2026-04-30 19:32 30.75944 121.29002 4936 ft 258 kts
2026-04-30 19:32 30.77727 121.29254 4934 ft 259 kts
2026-04-30 19:33 30.79500 121.29503 4932 ft 258 kts
2026-04-30 19:33 30.81284 121.29757 4928 ft 258 kts
2026-04-30 19:33 30.83070 121.30009 4936 ft 259 kts
2026-04-30 19:33 30.84847 121.30263 4943 ft 258 kts
2026-04-30 19:34 30.86623 121.30517 4933 ft 258 kts
2026-04-30 19:34 30.88357 121.30763 4937 ft 259 kts
2026-04-30 19:34 30.91867 121.31261 4931 ft 259 kts
2026-04-30 19:35 30.93548 121.31499 4926 ft 258 kts
2026-04-30 19:35 30.95356 121.31755 4929 ft 259 kts
2026-04-30 19:35 30.97131 121.32006 4925 ft 259 kts
2026-04-30 19:35 30.98588 121.32213 4923 ft 259 kts
2026-04-30 19:36 31.00322 121.32457 4919 ft 259 kts
2026-04-30 19:36 31.02082 121.32710 4932 ft 258 kts
2026-04-30 19:36 31.05624 121.33214 4925 ft 259 kts
2026-04-30 19:37 31.07373 121.33462 4926 ft 259 kts
2026-04-30 19:37 31.09161 121.33715 4922 ft 259 kts
2026-04-30 19:37 31.10947 121.33790 4922 ft 258 kts 353°
2026-04-30 19:37 31.12618 121.33119 4929 ft 257 kts 328°
2026-04-30 19:38 31.13887 121.31670 4928 ft 257 kts 307°
2026-04-30 19:38 31.14872 121.29987 4922 ft 258 kts 304°
2026-04-30 19:38 31.15851 121.28247 4906 ft 257 kts 304°
2026-04-30 19:38 31.16833 121.26529 4511 ft 254 kts 305°
2026-04-30 19:39 31.17795 121.24864 4330 ft 243 kts 304°
2026-04-30 19:39 31.18732 121.23276 4152 ft 233 kts 307°
2026-04-30 19:39 31.19841 121.21964 3993 ft 224 kts 324°
2026-04-30 19:39 31.21228 121.21249 3847 ft 218 kts 346°
2026-04-30 19:40 31.22646 121.21188 3648 ft 216 kts
2026-04-30 19:40 31.24105 121.21791 3398 ft 219 kts 28°
2026-04-30 19:40 31.25252 121.22927 3137 ft 220 kts 44°
2026-04-30 19:40 31.26347 121.24149 2990 ft 218 kts 39°
2026-04-30 19:41 31.27495 121.25287 2994 ft 219 kts 37°
2026-04-30 19:41 31.28667 121.26409 2971 ft 218 kts 36°
2026-04-30 19:41 31.29779 121.27457 2864 ft 217 kts 36°
2026-04-30 19:41 31.30969 121.28567 2814 ft 215 kts 36°
2026-04-30 19:42 31.32146 121.29665 2693 ft 217 kts 36°
2026-04-30 19:42 31.33324 121.30762 2566 ft 218 kts 36°
2026-04-30 19:42 31.34505 121.31861 2440 ft 218 kts 36°
2026-04-30 19:42 31.35617 121.32962 2319 ft 218 kts 42°
2026-04-30 19:43 31.36381 121.34555 2184 ft 223 kts 77°
2026-04-30 19:43 31.36164 121.36309 2112 ft 222 kts 117°
2026-04-30 19:43 31.35148 121.37510 2037 ft 203 kts 154°
2026-04-30 19:44 31.32500 121.37507 2010 ft 196 kts 200°
2026-04-30 19:44 31.31247 121.37045 2003 ft 195 kts 200°
2026-04-30 19:44 31.29955 121.36571 2017 ft 195 kts 200°
2026-04-30 19:44 31.28771 121.35980 1993 ft 188 kts 218°
2026-04-30 19:45 31.27791 121.34969 1671 ft 183 kts 231°
2026-04-30 19:45 31.26802 121.34053 1269 ft 183 kts 209°
2026-04-30 19:45 31.25573 121.33574 869 ft 190 kts 198°
2026-04-30 19:45 31.24342 121.33298 578 ft 170 kts 181°
2026-04-30 19:46 31.23279 121.33566 408 ft 147 kts 166°
2026-04-30 19:46 31.22346 121.33687 268 ft 128 kts 183°
2026-04-30 19:46 31.21508 121.33631 105 ft 117 kts 185°
2026-04-30 19:46 31.20751 121.33573 30 ft 92 kts 177°
2026-04-30 19:47 31.20401 121.33596 28 ft 7 kts 177°
2026-04-30 19:47 31.20399 121.33596 28 ft 1 kts 177°